Location: Carrer del Canonge
(41.4901°N, 2.2931°E)
Time: 07:32:08
(UTC+00:00)

Meteor 2-5 Rocket - Pass Details

Date: 18 September 2020
Orbit: 833 x 912 km, 81.2° (Epoch: 26 October)

Event Time Altitude Azimuth Distance (km) Brightness Sun altitude
Rises 20:22:41 0° 350° (N) 3,417 7.4 -27.4°
Reaches altitude 10° 20:25:05 10° 351° (N) 2,487 6.6 -27.8°
Enters shadow 20:30:24 80° 8° (N) 881 3.7 -28.6°
